This is the latest recevied weather packets stored in our database for station/object KC3ULW-13. If no packets are shown the sender has not sent any weather packets the latest 10 day(s).
| Time | Temp. | Humidity | Pressure | Rain* | Wind** | Luminosity | Snow |
|---|---|---|---|---|---|---|---|
| 1777845040 | 15.56° C | 35% | 1016.5 hPa | 0 mm | - | 125 W/m² | - |
| 1777844738 | 16.11° C | 35% | 1016.3 hPa | 0 mm | - | 246 W/m² | - |
| 1777844435 | 16.11° C | 34% | 1016.1 hPa | 0 mm | - | 310 W/m² | - |
| 1777844133 | 16.11° C | 36% | 1016.2 hPa | 0 mm | - | 130 W/m² | - |
| 1777843830 | 16.11° C | 35% | 1016.1 hPa | 0 mm | - | 331 W/m² | - |
| 1777843527 | 15° C | 37% | 1016.4 hPa | 0 mm | - | 175 W/m² | - |
| 1777843224 | 15.56° C | 36% | 1016.2 hPa | 0 mm | - | 134 W/m² | - |
| 1777842921 | 15.56° C | 38% | 1016.3 hPa | 0 mm | - | 472 W/m² | - |
| 1777842617 | 15° C | 37% | 1016.3 hPa | 0 mm | - | 163 W/m² | - |
| 1777842314 | 15° C | 37% | 1016.2 hPa | 0 mm | - | 117 W/m² | - |
| 1777842009 | 15° C | 38% | 1016.4 hPa | 0 mm | - | 411 W/m² | - |
| 1777841706 | 16.11° C | 35% | 1016.3 hPa | 0 mm | - | 99 W/m² | - |
| 1777841402 | 15.56° C | 35% | 1016.4 hPa | 0 mm | - | 482 W/m² | - |
| 1777841100 | 15.56° C | 36% | 1016.5 hPa | 0 mm | - | 161 W/m² | - |
| 1777840796 | 15.56° C | 36% | 1016.4 hPa | 0 mm | - | 245 W/m² | - |
| 1777840494 | 15.56° C | 36% | 1016.5 hPa | 0 mm | - | 413 W/m² | - |
| 1777840190 | 15.56° C | 35% | 1016.9 hPa | 0 mm | - | 484 W/m² | - |
| 1777839889 | 15.56° C | 36% | 1016.9 hPa | 0 mm | - | 482 W/m² | - |
| 1777839587 | 15.56° C | 36% | 1016.9 hPa | 0 mm | - | 540 W/m² | - |
| 1777839284 | 15.56° C | 36% | 1016.8 hPa | 0 mm | - | 450 W/m² | - |
| 1777838981 | 15.56° C | 37% | 1016.7 hPa | 0 mm | - | 607 W/m² | - |
| 1777838677 | 15.56° C | 36% | 1017 hPa | 0 mm | - | 263 W/m² | - |
| 1777838374 | 15.56° C | 36% | 1016.9 hPa | 0 mm | - | 185 W/m² | - |
| 1777838072 | 15° C | 37% | 1017 hPa | 0 mm | - | 661 W/m² | - |
| 1777837768 | 14.44° C | 38% | 1017 hPa | 0 mm | - | 176 W/m² | - |
* Rain latest hour (hover to see other rain measurements)
** Current wind speed in m/s (hover to see current wind gust speed)